Preview of NWS' New Version of Forecast
This preview is not operational and should not be used for support decisions.
Latest weather observations around

Hunter U. S. Army Airfield (KSVN)

Using English Units (Switch to International System of Units)
Date/ Time (EDT) Wind (mph) Vis. (mi) Weather Sky Cond. Temp (°F) Rel. Humidity Wind Chill (°F) Heat Index (°F) Pressure Precip. (in)
Air Dwpt 6 hour Altimeter (inHg) Sea level (inHg) 1 hr 3 hr 6 hr
Max Min
Jun 18 15:56 ESE 6 10 Mostly Cloudy BKN031 85 74     70%   94 29.91 29.92      
Jun 18 14:56 ESE 6 10 Mostly Cloudy BKN043 BKN250 88 75     66%   98 29.93 29.94      
Jun 18 13:56 Calm 10 Mostly Cloudy BKN030 BKN250 88 71     58%   94 29.94 29.95     0
Jun 18 12:56 N 3 10 Mostly Cloudy SCT030 BKN250 86 72     63%   93 29.97 29.98 0    
Jun 18 12:09 SE 5 10 Light Drizzle FEW180 84 75     74%   92 29.98 29.99      
Jun 18 12:02 Calm 9 Clear CLR 84 75     74%   92 29.98 29.99      
Jun 18 11:59 Calm 8 Light Drizzle CLR 86 75     70%   95 29.99 30      
Jun 18 11:56 S 3 10 Mostly Cloudy BKN025 BKN280 87 75     69%   96 29.99 30      
Jun 18 10:56 Calm 10 Clear CLR 81 75     80%   88 29.98 29.99   0  
Jun 18 09:56 E 3 10 Mostly Cloudy FEW015 SCT030 BKN280 77 74     92%   79 30 30.01 0    
Jun 18 09:10 ENE 3 10 Mostly Clear FEW013 75 72     89%   77 30.01 30.02      
Jun 18 08:56 E 8 10 Light Rain and Fog/Mist SCT013 75 72     90%   76 30.01 30.02 0    
Jun 18 08:53 ESE 6 10 Light Rain and Fog/Mist SCT013 75 72     89%   77 30.01 30.02      
Jun 18 08:38 E 6 10 Heavy Rain and Fog/Mist FEW007 BKN014 75 72     89%   77 30.01 30.02      
Jun 18 08:23 Calm 10 Light Rain FEW016 FEW022 SCT065 77 73     89%   79 30.01 30.02      
Jun 18 08:11 Calm 10 Partly Cloudy SCT016 79 73     84%   82 30.01 30.02      
Jun 18 07:56 Calm 10 Mostly Cloudy BKN020 BKN300 78 74     88%   80 30        
Jun 18 06:56 Calm 10 Mostly Cloudy SCT020 SCT080 BKN300 76 72     87%   77 30 30.01      
Jun 18 05:56 Calm 10 Mostly Clear FEW020 76 71     85%   77 29.99 30      
Jun 18 04:56 Calm 10 Mostly Clear FEW023 75 72     90%   77 29.99 30      
Jun 18 03:56 Calm 10 Mostly Clear FEW020 77 73     86%   79 30 30.01      
Jun 18 02:56 SSE 3 10 Partly Cloudy SCT020 78 73     84%   80 30.01 30.02      
Jun 18 01:56 Calm 10 Mostly Clear FEW020 78 72     83%   79 30.02 30.03      
Jun 18 00:56 SSE 3 10 Mostly Clear FEW020 78 72     82%   80 30.04 30.05      
Jun 17 23:56 SSE 3 10 Mostly Clear FEW020 80 72     79%   83 30.04 30.05      
Jun 17 22:56 SSE 5 10 Mostly Clear FEW020 80 72     77%   83 30.05 30.06      
Jun 17 21:56 S 7 10 Mostly Clear FEW021 80 73     78%   85 30.04 30.05      
Jun 17 20:56 S 9 10 Clear CLR 81 71     72%   85 30.02 30.03      
Jun 17 20:47 SSE 9 10 Clear CLR 81 72     74%   85 30.02 30.03      
Jun 17 18:56 SE 15 10 Mostly Clear FEW022 83 74     74%   91 30.03 30.04      
Jun 17 17:56 SSE 15 10 Clear CLR 86 74     67%   93 30.02 30.03      
Jun 17 16:56 SSE 11 10 Clear CLR 87 72     61%   94 30.01 30.02      
Jun 17 15:56 SSE 14 10 Clear CLR 88 72     61%   95 30.03 30.04      
Jun 17 14:56 SSE 10 10 Mostly Clear FEW180 88 73     61%   96 30.05 30.06      
Jun 17 13:56   10 Mostly Cloudy FEW043 SCT120 SCT140 BKN180 89 72     58%   95 30.05 30.06      
Jun 17 12:56 SW 8 10 Mostly Clear FEW042 FEW170 88 69     54%   92 30.07 30.08      
Jun 17 11:56 SSW 8 10 Clear CLR 87 70     57%   92 30.08 30.09      
Jun 17 10:56 SSW 8 10 Clear CLR 86 71     60%   91 30.08 30.09      
Jun 17 09:56 SW 9 10 Clear CLR 84 72     66%   90 30.07 30.08      
Jun 17 08:56 SW 7 10 Clear CLR 81 73     76%   86 30.06 30.07      
Jun 17 07:56 Calm 10 Clear CLR 77 75     94%   79 30.04 30.05      
Jun 17 06:56 S 5 10 Clear CLR 75 74     95%   77 30.04 30.05      
Jun 17 05:56 Calm 10 Clear CLR 73 71     94%   75 30.02 30.03      
Jun 17 04:56 Calm 10 Clear CLR 74 72     93%   75 30.01 30.02      
Jun 17 03:56 Calm 10 Clear CLR 74 72     93%   76 30.02 30.03      
Jun 17 02:56 Calm 10 Clear CLR 75 72     91%   76 30.02 30.03      
Jun 17 01:56 Calm 10 Clear   77 73     89%   78 30.03 30.04      
Jun 17 00:56 S 3 10 Clear CLR 78 74     86%   80 30.02 30.03      
Jun 16 23:56 S 3 10 Clear CLR 79 74     85%   82 30.03 30.04      
Jun 16 22:56 S 5 10 Clear CLR 79 74     84%   83 30.02 30.03      
Jun 16 21:56 SSE 5 10 Clear CLR 80 74     83%   84 30.02 30.03      
Jun 16 20:56 SSE 6 10 Clear CLR 81 73     79%   85 30.02 30.03      
Jun 16 19:56 S 10 10 Clear CLR 83 72     71%   88 30.01 30.02      
Jun 16 18:56 SSE 10 10 Clear CLR 84 72     67%   90 30 30.01      
Jun 16 17:56 SSE 10 10 Clear CLR 85 72     65%   92 30 30.01      
Jun 16 16:56 SE 14 10 Clear CLR 86 73     66%   93 30 30.01      
Jun 16 15:56 SE 10 10 Mostly Cloudy SCT048 BKN055 BKN190 87 74     64%   95 30.01 30.02      
Jun 16 14:56 S 13 10 Partly Cloudy SCT038 87 74     64%   96 30.01 30.02      
Jun 16 13:56 S 9 10 Partly Cloudy FEW031 SCT075 SCT190 88 73     63%   96 30.04 30.05      
Jun 16 12:56 SW 3 10 Partly Cloudy SCT043 88 69     54%   92 30.06 30.07      
Jun 16 11:56 WSW 6 10 Mostly Cloudy BKN036 85 71     62%   90 30.08 30.09      
Jun 16 11:11 WSW 7 10 Partly Cloudy FEW027 SCT065 86 72     62%   92 30.08 30.09      
Jun 16 10:56 W 7 10 Mostly Cloudy BKN026 BKN065 86 72     65%   92 30.08 30.09      
Jun 16 10:41 S 7 10 Partly Cloudy SCT026 84 73     70%   91 30.08 30.09      
Jun 16 09:56 WSW 7 10 Partly Cloudy SCT018 SCT030 84 74     72%   91 30.09 30.1      
Jun 16 09:41 WSW 7 10 Mostly Cloudy BKN018 82 75     79%   89 30.09 30.1      
Jun 16 09:26 WSW 5 10 Mostly Cloudy BKN018 82 75     79%   89 30.08 30.09      
Jun 16 08:56 WSW 5 10 Mostly Clear FEW016 80 76     89%   84 30.08 30.09      
Jun 16 07:56 Calm 10 Clear CLR 76 74     94%   78 30.05 30.06      
Jun 16 06:56 WNW 3 10 Clear CLR 71 69     94%   72 30.04 30.05      
Jun 16 05:56 Calm 10 Clear CLR 71 69     93%   72 30.02 30.03      
Jun 16 04:56 Calm 8 Clear CLR 72 70     93%   73 30.01 30.02      
Jun 16 03:56 Calm 10 Clear CLR 72 69     93%   73 30.02 30.03      
Jun 16 02:56 Calm 10 Clear CLR 72 69     92%   73 30.04 30.05      
Jun 16 01:56 Calm 10 Clear CLR 73 70     90%   74 30.06 30.07      
Jun 16 00:56 Calm 10 Clear CLR 75 71     87%   76 30.08 30.09      
Jun 15 23:56 Calm 10 Clear CLR 76 70     83%   77 30.09 30.1      
Jun 15 22:56 SE 3 10 Clear CLR 77 70     80%   78 30.09 30.1      
Jun 15 21:56 SE 5 10 Clear CLR 77 69     77%   78 30.09 30.1      
Notice The following observation data may not be complete
Jun 15 18:56   10 Mostly Clear FEW039          %              
Jun 15 17:30 E 10 10 Light Rain SCT043 BKN050 82 68     62%   85 30.08 30.09      
May 15 10:49 ESE 9 10 Partly Cloudy SCT016 SCT160 75 72     89%   77 29.98 29.99      
May 15 10:36 SSE 7 10 Light Rain SCT016 SCT160 77 73     89%   79 29.98 29.99      
May 15 00:35 E 7 10 Light Rain FEW024 FEW038 73 70     89%   75 29.99        
May 12 10:56 Calm 10 Clear CLR 88 58     37%   87 30.12 30.13      
May 11 21:56 SSE 5 10 Clear CLR 76 64     68%   76 30.06 30.07      
Jun 12 07:58 ENE 5 10 Clear CLR 77 77     100%   79 30.15 30.16      
Jun 11 18:33 E 9 10 Mostly Clear FEW028 81 75     84%   86 30.13 30.14      
Jun 11 17:10 SE 11 10 Mostly Clear FEW030 82        %     30.16 30.17      
Jun 11 15:58 ESE 10 10 Partly Cloudy FEW029 SCT048 85 78     79%   96 30.17 30.18      
Jun 11 14:58 E 15 10 Partly Cloudy FEW027 SCT190 SCT210 83 77     84%   91 30.18 30.19      
Jun 11 07:58 E 5 10 Clear CLR 77 77     100%   79 30.16 30.17      
Jun 10 22:58 ESE 7 10 Clear CLR 78 76     96%   80 30.13 30.14      
Jun 10 17:44 ESE 14 10 Mostly Clear FEW033 82 75     79%   89 30.07 30.08      
Jun 09 17:07 SE 10 10 Mostly Clear FEW095 79 72     79%   82 29.93 29.94      
Jun 09 00:58 Calm 10 Clear CLR 65 65     100%     29.87 29.88      
Jun 08 18:58 Calm 10 Clear CLR 79 64     61%   79 29.81 29.82      
Jun 08 11:36 N 7 10 Light Drizzle SCT015 BKN020 BKN190 68 66     94%     29.84 29.85      
Jun 08 11:23 N 9 10 Light Drizzle SCT015 BKN018 BKN210 68 66     94%     29.84 29.85      
Notice The following observation data may not be complete
Jun 08 08:10   10 Cloudy BKN007 OVC015          %              
Jun 07 19:58 NE 8 10 Cloudy SCT009 BKN014 OVC024 68 68     100%     29.76 29.77 0   0
Jun 07 17:47 Calm 10 Light Rain BKN008 BKN016 72 72     100%   73 29.72 29.73      
Jun 07 13:58 NE 11 10 Cloudy OVC020 75 74     96%   77 29.73 29.74     0
Jun 05 20:58 SSW 3 10 Partly Cloudy SCT080 78 77     95%   81 29.79 29.8      
Jun 05 19:03 WSW 17 10 Light Drizzle FEW050 BKN065 82 73     74%   88 29.78 29.79